NORTHEAST SUFFOLK  -  Wind Advisory Wind Advisory     Wind Advisory Wind Advisory     Rip Current Statement Rip Current Statement     Rip Current Statement Rip Current Statement        NORTHERN NASSAU  -  Wind Advisory Wind Advisory     Wind Advisory Wind Advisory     Coastal Flood Statement Coastal Flood Statement     Rip Current Statement Rip Current Statement     Rip Current Statement Rip Current Statement        NORTHERN QUEENS  -  Wind Advisory Wind Advisory     Coastal Flood Statement Coastal Flood Statement     Rip Current Statement Rip Current Statement     Rip Current Statement Rip Current Statement        NORTHWEST SUFFOLK  -  Wind Advisory Wind Advisory     Wind Advisory Wind Advisory     Rip Current Statement Rip Current Statement     Rip Current Statement Rip Current Statement        SOUTHEAST SUFFOLK  -  Wind Advisory Wind Advisory     Wind Advisory Wind Advisory     Rip Current Statement Rip Current Statement     Rip Current Statement Rip Current Statement        SOUTHERN NASSAU  -  Wind Advisory Wind Advisory     Wind Advisory Wind Advisory     Coastal Flood Statement Coastal Flood Statement     Rip Current Statement Rip Current Statement     Rip Current Statement Rip Current Statement        SOUTHERN QUEENS  -  Wind Advisory Wind Advisory     Coastal Flood Statement Coastal Flood Statement     Rip Current Statement Rip Current Statement     Rip Current Statement Rip Current Statement        SOUTHWEST SUFFOLK  -  Wind Advisory Wind Advisory     Wind Advisory Wind Advisory     Rip Current Statement Rip Current Statement     Rip Current Statement Rip Current Statement      

Active alerts

Northern Queens
  Details for Northern Queens Wind Advisory  +3 additional alerts
Southern Queens
  Details for Southern Queens Wind Advisory  +3 additional alerts
Northern Nassau
  Details for Northern Nassau Wind Advisory  +4 additional alerts
Southern Nassau
  Details for Southern Nassau Wind Advisory  +4 additional alerts
Northwest Suffolk
  Details for Northwest Suffolk Wind Advisory  +3 additional alerts
Southwest Suffolk
  Details for Southwest Suffolk Wind Advisory  +3 additional alerts
Northeast Suffolk
  Details for Northeast Suffolk Wind Advisory  +3 additional alerts
Southeast Suffolk
  Details for Southeast Suffolk Wind Advisory  +3 additional alerts


WXM80 ListenWXM80 Stop

You find our weather info also at:

UK Metoffice

WeatherCloud

Weather Underground

Northeastern Weather Network

AWEKAS

Citizen Weather Observer Program (CWOP)

HAMweather, WeatherForYou, PWS Weather


Weather Underground History page Text

Daily Summary for January 28, 2017 Units:  English    Metric   Both
« Previous Day
Next Day »
Daily Weekly Monthly Yearly Custom
  High: Low: Average:
Temperature: 40.5 °F 34.6 °F 37.1 °F
Dew Point: 27.1 °F 23.7 °F 25.3 °F
Humidity: 67 % 52 % 62 %
Wind Speed: 12.0 mph 0.0 mph 5.8 mph
Wind Gust: 20.7 mph - -
Wind:- - WSW
Pressure: 29.71 in 29.57 in -
Precipitation: 0.00 in    
Historical Graphs
 
 
Tabular Data for January 28, 2017
Time Temperature Dew Point Pressure Wind Wind Speed Wind Gust Humidity Rainfall Rate (Hourly)
00:03 38.2 °F 26.7 °F 29.58 in SW 10.6 mph 19.6 mph 63 % 0.00 in
00:08 38.2 °F 26.7 °F 29.57 in SW 6.0 mph 11.5 mph 63 % 0.00 in
00:19 38.1 °F 26.6 °F 29.58 in WSW 6.6 mph 11.5 mph 63 % 0.00 in
00:24 38.1 °F 26.6 °F 29.58 in WSW 6.0 mph 12.0 mph 63 % 0.00 in
00:29 38.1 °F 26.6 °F 29.57 in WSW 5.0 mph 12.7 mph 63 % 0.00 in
00:34 38.0 °F 26.5 °F 29.58 in WSW 7.0 mph 16.0 mph 63 % 0.00 in
00:39 37.9 °F 26.4 °F 29.58 in WSW 5.0 mph 14.0 mph 63 % 0.00 in
00:44 37.9 °F 26.4 °F 29.58 in WSW 7.0 mph 14.0 mph 63 % 0.00 in
00:49 37.8 °F 26.7 °F 29.58 in WSW 6.0 mph 13.0 mph 64 % 0.00 in
00:54 37.7 °F 26.6 °F 29.57 in SW 7.0 mph 12.0 mph 64 % 0.00 in
00:59 37.5 °F 26.0 °F 29.57 in SW 4.0 mph 18.4 mph 63 % 0.00 in
01:04 37.4 °F 25.9 °F 29.58 in SW 3.3 mph 11.5 mph 63 % 0.00 in
01:09 37.3 °F 25.8 °F 29.58 in SW 7.0 mph 15.0 mph 63 % 0.00 in
01:14 37.3 °F 25.8 °F 29.58 in WSW 8.8 mph 11.5 mph 63 % 0.00 in
01:19 37.3 °F 26.2 °F 29.58 in WSW 4.2 mph 9.2 mph 64 % 0.00 in
01:24 37.2 °F 25.8 °F 29.58 in WSW 6.3 mph 11.5 mph 63 % 0.00 in
01:29 37.2 °F 25.8 °F 29.58 in WSW 10.4 mph 15.0 mph 63 % 0.00 in
01:34 37.1 °F 25.7 °F 29.58 in WSW 5.4 mph 8.1 mph 63 % 0.00 in
01:39 37.1 °F 25.7 °F 29.58 in WSW 4.7 mph 11.5 mph 63 % 0.00 in
01:44 37.0 °F 25.6 °F 29.58 in WSW 7.5 mph 11.5 mph 63 % 0.00 in
01:49 37.0 °F 25.6 °F 29.58 in South 7.5 mph 9.2 mph 63 % 0.00 in
01:54 37.0 °F 25.6 °F 29.58 in SW 8.0 mph 13.8 mph 63 % 0.00 in
01:59 36.9 °F 25.5 °F 29.58 in SW 7.9 mph 9.2 mph 63 % 0.00 in
02:04 36.9 °F 25.5 °F 29.58 in WSW 5.4 mph 11.5 mph 63 % 0.00 in
02:09 36.8 °F 25.4 °F 29.58 in WSW 8.5 mph 13.8 mph 63 % 0.00 in
02:15 36.8 °F 25.4 °F 29.58 in WSW 10.6 mph 16.1 mph 63 % 0.00 in
02:20 36.8 °F 25.4 °F 29.58 in WNW 8.0 mph 13.0 mph 63 % 0.00 in
02:25 36.7 °F 25.3 °F 29.58 in SW 4.5 mph 15.0 mph 63 % 0.00 in
02:30 36.5 °F 25.1 °F 29.58 in WSW 5.5 mph 10.4 mph 63 % 0.00 in
02:35 36.4 °F 25.0 °F 29.58 in SW 8.9 mph 12.7 mph 63 % 0.00 in
02:40 36.2 °F 25.2 °F 29.58 in SW 7.1 mph 11.5 mph 64 % 0.00 in
02:45 36.1 °F 25.1 °F 29.58 in West 6.3 mph 8.1 mph 64 % 0.00 in
02:50 35.9 °F 25.3 °F 29.58 in SW 5.0 mph 9.2 mph 65 % 0.00 in
02:55 35.9 °F 25.3 °F 29.57 in West 8.0 mph 11.5 mph 65 % 0.00 in
03:00 35.8 °F 25.2 °F 29.58 in SW 8.1 mph 13.8 mph 65 % 0.00 in
03:05 35.7 °F 25.1 °F 29.58 in West 3.2 mph 10.4 mph 65 % 0.00 in
03:10 35.7 °F 25.1 °F 29.58 in West 7.8 mph 13.8 mph 65 % 0.00 in
03:15 35.7 °F 25.1 °F 29.58 in West 9.7 mph 15.0 mph 65 % 0.00 in
03:20 35.8 °F 25.2 °F 29.58 in WSW 5.8 mph 10.4 mph 65 % 0.00 in
03:30 35.7 °F 25.4 °F 29.58 in WSW 5.1 mph 12.0 mph 66 % 0.00 in
03:35 35.6 °F 25.4 °F 29.58 in SSW 6.9 mph 9.2 mph 66 % 0.00 in
03:40 35.5 °F 25.3 °F 29.58 in SSW 3.8 mph 8.1 mph 66 % 0.00 in
03:46 35.5 °F 25.3 °F 29.58 in SW 4.6 mph 11.5 mph 66 % 0.00 in
03:51 35.4 °F 25.2 °F 29.58 in SSW 7.5 mph 13.8 mph 66 % 0.00 in
03:56 35.3 °F 25.1 °F 29.58 in SW 3.1 mph 17.3 mph 66 % 0.00 in
04:01 35.3 °F 25.1 °F 29.58 in WSW 5.4 mph 11.5 mph 66 % 0.00 in
04:06 35.3 °F 24.7 °F 29.58 in WSW 8.5 mph 13.8 mph 65 % 0.00 in
04:11 35.4 °F 24.8 °F 29.59 in SSE 5.2 mph 10.4 mph 65 % 0.00 in
04:16 35.4 °F 24.8 °F 29.59 in WSW 7.6 mph 11.5 mph 65 % 0.00 in
04:26 35.5 °F 24.5 °F 29.59 in WSW 7.6 mph 16.1 mph 64 % 0.00 in
04:31 35.6 °F 24.6 °F 29.59 in SW 7.5 mph 12.7 mph 64 % 0.00 in
04:36 35.7 °F 24.7 °F 29.58 in WSW 6.7 mph 15.0 mph 64 % 0.00 in
04:41 35.8 °F 24.4 °F 29.58 in WSW 10.4 mph 16.1 mph 63 % 0.00 in
04:46 35.8 °F 24.8 °F 29.59 in SSW 7.8 mph 12.7 mph 64 % 0.00 in
04:51 35.8 °F 24.4 °F 29.59 in SW 10.2 mph 17.3 mph 63 % 0.00 in
04:56 35.8 °F 24.4 °F 29.59 in WNW 7.2 mph 15.0 mph 63 % 0.00 in
05:01 35.8 °F 24.4 °F 29.59 in South 7.7 mph 15.0 mph 63 % 0.00 in
05:06 35.9 °F 24.5 °F 29.59 in SW 7.0 mph 10.4 mph 63 % 0.00 in
05:12 35.8 °F 24.4 °F 29.59 in WSW 5.2 mph 11.0 mph 63 % 0.00 in
05:17 35.8 °F 24.4 °F 29.59 in SW 5.0 mph 10.0 mph 63 % 0.00 in
05:22 35.8 °F 24.4 °F 29.59 in South 6.9 mph 13.8 mph 63 % 0.00 in
05:27 35.7 °F 24.3 °F 29.59 in WSW 5.0 mph 9.0 mph 63 % 0.00 in
05:32 35.7 °F 24.3 °F 29.59 in SW 6.6 mph 11.5 mph 63 % 0.00 in
05:37 35.6 °F 24.2 °F 29.59 in WSW 7.2 mph 10.4 mph 63 % 0.00 in
05:42 35.5 °F 24.1 °F 29.59 in WSW 7.5 mph 12.7 mph 63 % 0.00 in
05:47 35.5 °F 24.1 °F 29.60 in WSW 10.7 mph 17.3 mph 63 % 0.00 in
05:52 35.4 °F 24.0 °F 29.60 in SW 5.9 mph 11.0 mph 63 % 0.00 in
05:57 35.4 °F 24.0 °F 29.60 in WSW 5.7 mph 10.4 mph 63 % 0.00 in
06:02 35.3 °F 24.3 °F 29.60 in WSW 7.0 mph 15.0 mph 64 % 0.00 in
06:07 35.3 °F 24.3 °F 29.60 in South 3.7 mph 6.9 mph 64 % 0.00 in
06:12 35.3 °F 24.3 °F 29.60 in WSW 7.4 mph 15.0 mph 64 % 0.00 in
06:13 35.3 °F 24.3 °F 29.60 in SSW 6.2 mph 15.0 mph 64 % 0.00 in
06:18 35.3 °F 24.3 °F 29.61 in WSW 7.2 mph 11.5 mph 64 % 0.00 in
06:23 35.3 °F 24.3 °F 29.61 in WSW 6.0 mph 18.4 mph 64 % 0.00 in
06:33 35.4 °F 24.4 °F 29.61 in WSW 3.7 mph 9.2 mph 64 % 0.00 in
06:38 35.4 °F 24.4 °F 29.61 in SSW 8.5 mph 12.7 mph 64 % 0.00 in
06:43 35.4 °F 24.4 °F 29.61 in WSW 4.8 mph 9.0 mph 64 % 0.00 in
06:48 35.4 °F 24.4 °F 29.61 in WSW 7.8 mph 11.5 mph 64 % 0.00 in
06:58 35.4 °F 24.4 °F 29.62 in SW 7.9 mph 16.0 mph 64 % 0.00 in
07:03 35.4 °F 24.4 °F 29.62 in WSW 6.9 mph 11.5 mph 64 % 0.00 in
07:08 35.3 °F 24.3 °F 29.61 in SSW 5.1 mph 12.7 mph 64 % 0.00 in
07:13 35.2 °F 24.2 °F 29.62 in SW 6.0 mph 10.0 mph 64 % 0.00 in
07:18 35.1 °F 24.5 °F 29.61 in WSW 5.8 mph 9.2 mph 65 % 0.00 in
07:23 35.1 °F 24.1 °F 29.61 in WSW 5.6 mph 13.8 mph 64 % 0.00 in
07:28 35.1 °F 24.1 °F 29.62 in SSW 9.6 mph 19.6 mph 64 % 0.00 in
07:34 35.2 °F 24.2 °F 29.62 in SW 3.3 mph 6.9 mph 64 % 0.00 in
07:39 35.1 °F 24.2 °F 29.62 in WSW 9.0 mph 14.0 mph 64 % 0.00 in
07:49 35.3 °F 24.3 °F 29.62 in West 6.6 mph 10.4 mph 64 % 0.00 in
07:54 35.3 °F 24.3 °F 29.62 in WSW 6.0 mph 12.0 mph 64 % 0.00 in
07:59 35.5 °F 24.5 °F 29.62 in SW 4.6 mph 6.9 mph 64 % 0.00 in
08:04 35.6 °F 24.6 °F 29.62 in West 8.4 mph 20.7 mph 64 % 0.00 in
08:09 35.9 °F 24.5 °F 29.63 in West 3.3 mph 6.9 mph 63 % 0.00 in
08:14 36.3 °F 24.9 °F 29.63 in SW 6.4 mph 12.0 mph 63 % 0.00 in
08:19 36.6 °F 24.8 °F 29.63 in WSW 10.8 mph 19.6 mph 62 % 0.00 in
08:24 36.8 °F 25.0 °F 29.63 in SW 5.0 mph 10.4 mph 62 % 0.00 in
08:34 37.0 °F 24.4 °F 29.64 in WSW 11.2 mph 18.4 mph 60 % 0.00 in
08:39 36.9 °F 24.7 °F 29.64 in WSW 4.9 mph 10.4 mph 61 % 0.00 in
08:44 36.9 °F 24.7 °F 29.64 in West 6.7 mph 11.5 mph 61 % 0.00 in
08:49 36.8 °F 24.6 °F 29.64 in WSW 8.0 mph 16.1 mph 61 % 0.00 in
08:54 36.8 °F 24.6 °F 29.64 in WSW 10.8 mph 17.3 mph 61 % 0.00 in
08:59 36.8 °F 24.6 °F 29.64 in WSW 7.8 mph 19.6 mph 61 % 0.00 in
09:04 36.8 °F 24.6 °F 29.64 in WNW 7.3 mph 20.7 mph 61 % 0.00 in
09:09 36.7 °F 24.5 °F 29.64 in WSW 9.3 mph 18.0 mph 61 % 0.00 in
09:14 36.8 °F 25.0 °F 29.64 in West 7.4 mph 11.5 mph 62 % 0.00 in
09:19 36.9 °F 24.7 °F 29.65 in WSW 3.5 mph 11.5 mph 61 % 0.00 in
09:25 37.0 °F 24.8 °F 29.65 in West 7.6 mph 13.8 mph 61 % 0.00 in
09:30 37.2 °F 25.4 °F 29.65 in WSW 9.9 mph 13.0 mph 62 % 0.00 in
09:35 37.4 °F 24.8 °F 29.65 in SW 5.4 mph 17.3 mph 60 % 0.00 in
09:40 37.6 °F 25.0 °F 29.65 in WSW 5.3 mph 8.1 mph 60 % 0.00 in
09:45 37.7 °F 25.1 °F 29.65 in WSW 8.1 mph 13.8 mph 60 % 0.00 in
09:50 37.8 °F 25.1 °F 29.65 in WSW 7.8 mph 13.8 mph 60 % 0.00 in
09:55 37.9 °F 25.6 °F 29.65 in WSW 7.1 mph 14.0 mph 61 % 0.00 in
10:00 37.9 °F 25.6 °F 29.66 in SW 9.5 mph 16.1 mph 61 % 0.00 in
10:05 37.9 °F 25.6 °F 29.66 in West 3.8 mph 8.0 mph 61 % 0.00 in
10:10 38.0 °F 25.3 °F 29.66 in SW 8.6 mph 18.4 mph 60 % 0.00 in
10:15 38.0 °F 25.3 °F 29.66 in West 7.0 mph 10.4 mph 60 % 0.00 in
10:20 38.1 °F 26.2 °F 29.66 in West 8.6 mph 12.0 mph 62 % 0.00 in
10:25 38.2 °F 25.9 °F 29.66 in SW 8.3 mph 17.3 mph 61 % 0.00 in
10:30 38.2 °F 25.9 °F 29.66 in West 6.2 mph 16.1 mph 61 % 0.00 in
10:35 38.4 °F 26.1 °F 29.66 in SW 5.9 mph 12.0 mph 61 % 0.00 in
10:40 38.4 °F 26.1 °F 29.66 in WSW 7.9 mph 19.6 mph 61 % 0.00 in
10:45 38.4 °F 26.1 °F 29.66 in WNW 9.1 mph 16.1 mph 61 % 0.00 in
10:51 38.4 °F 26.1 °F 29.66 in SW 10.8 mph 12.0 mph 61 % 0.00 in
10:56 38.5 °F 26.2 °F 29.65 in WSW 7.9 mph 16.0 mph 61 % 0.00 in
11:01 38.6 °F 25.9 °F 29.65 in West 10.3 mph 13.8 mph 60 % 0.00 in
11:06 38.6 °F 25.9 °F 29.65 in West 5.0 mph 8.1 mph 60 % 0.00 in
11:11 38.8 °F 26.5 °F 29.65 in WSW 10.4 mph 15.0 mph 61 % 0.00 in
11:16 38.8 °F 26.1 °F 29.65 in SW 9.6 mph 13.8 mph 60 % 0.00 in
11:21 38.9 °F 26.6 °F 29.65 in WNW 4.9 mph 9.2 mph 61 % 0.00 in
11:26 39.0 °F 26.3 °F 29.65 in WSW 6.6 mph 14.0 mph 60 % 0.00 in
11:31 39.3 °F 26.6 °F 29.64 in West 7.6 mph 12.7 mph 60 % 0.00 in
11:36 39.6 °F 26.4 °F 29.64 in West 7.6 mph 11.5 mph 59 % 0.00 in
11:41 39.7 °F 26.9 °F 29.64 in SW 3.2 mph 8.1 mph 60 % 0.00 in
11:46 39.9 °F 26.7 °F 29.63 in SW 8.7 mph 11.5 mph 59 % 0.00 in
11:51 40.0 °F 26.8 °F 29.63 in WSW 5.7 mph 9.2 mph 59 % 0.00 in
11:56 40.0 °F 26.4 °F 29.63 in SW 12.0 mph 19.6 mph 58 % 0.00 in
12:01 40.0 °F 26.4 °F 29.63 in WNW 4.6 mph 10.4 mph 58 % 0.00 in
12:06 40.0 °F 26.0 °F 29.63 in SW 7.6 mph 11.5 mph 57 % 0.00 in
12:11 40.0 °F 25.6 °F 29.63 in WSW 4.9 mph 10.4 mph 56 % 0.00 in
12:17 40.0 °F 25.1 °F 29.62 in WSW 2.9 mph 5.8 mph 55 % 0.00 in
12:22 40.1 °F 25.2 °F 29.62 in SW 7.7 mph 16.1 mph 55 % 0.00 in
12:27 40.1 °F 25.2 °F 29.62 in SSW 7.5 mph 15.0 mph 55 % 0.00 in
12:32 40.2 °F 26.2 °F 29.62 in WSW 10.5 mph 17.3 mph 57 % 0.00 in
12:37 40.1 °F 25.2 °F 29.62 in West 7.8 mph 19.6 mph 55 % 0.00 in
12:42 40.0 °F 25.6 °F 29.62 in West 9.3 mph 15.0 mph 56 % 0.00 in
12:47 39.9 °F 25.9 °F 29.61 in SW 9.3 mph 16.1 mph 57 % 0.00 in
12:52 40.0 °F 24.7 °F 29.61 in SW 5.2 mph 8.1 mph 54 % 0.00 in
12:57 40.2 °F 24.9 °F 29.61 in WNW 5.8 mph 10.4 mph 54 % 0.00 in
13:02 40.5 °F 24.2 °F 29.61 in WSW 8.1 mph 11.5 mph 52 % 0.00 in
13:07 40.5 °F 24.2 °F 29.61 in WNW 8.2 mph 13.8 mph 52 % 0.00 in
13:17 40.4 °F 24.1 °F 29.62 in WNW 6.5 mph 15.0 mph 52 % 0.00 in
13:22 40.1 °F 23.9 °F 29.62 in WNW 5.5 mph 17.3 mph 52 % 0.00 in
13:27 39.9 °F 23.7 °F 29.62 in West 8.9 mph 16.1 mph 52 % 0.00 in
13:32 39.7 °F 24.4 °F 29.61 in NW 4.0 mph 8.1 mph 54 % 0.00 in
13:37 39.6 °F 25.6 °F 29.62 in NW 2.6 mph 12.7 mph 57 % 0.00 in
13:47 39.3 °F 26.2 °F 29.62 in NW 7.2 mph 11.0 mph 59 % 0.00 in
13:53 39.1 °F 26.0 °F 29.62 in NW 5.7 mph 11.5 mph 59 % 0.00 in
13:58 39.0 °F 26.3 °F 29.61 in NW 5.0 mph 11.5 mph 60 % 0.00 in
14:03 38.8 °F 25.7 °F 29.62 in NW 7.8 mph 18.4 mph 59 % 0.00 in
14:08 38.6 °F 25.5 °F 29.62 in WNW 6.5 mph 11.5 mph 59 % 0.00 in
14:13 38.5 °F 26.2 °F 29.62 in NW 5.1 mph 9.2 mph 61 % 0.00 in
14:18 38.5 °F 25.8 °F 29.62 in WNW 1.8 mph 5.8 mph 60 % 0.00 in
14:23 38.6 °F 26.3 °F 29.62 in West 2.8 mph 10.4 mph 61 % 0.00 in
14:28 38.6 °F 26.3 °F 29.62 in WNW 5.9 mph 13.0 mph 61 % 0.00 in
14:33 38.6 °F 26.7 °F 29.62 in NW 4.7 mph 10.4 mph 62 % 0.00 in
14:38 38.6 °F 27.1 °F 29.62 in WNW 5.1 mph 8.1 mph 63 % 0.00 in
14:43 38.5 °F 27.0 °F 29.63 in WNW 3.4 mph 9.0 mph 63 % 0.00 in
14:48 38.4 °F 26.9 °F 29.63 in WNW 3.1 mph 8.1 mph 63 % 0.00 in
14:53 38.3 °F 26.8 °F 29.63 in WNW 4.6 mph 9.2 mph 63 % 0.00 in
14:58 38.2 °F 26.7 °F 29.63 in NW 3.8 mph 6.0 mph 63 % 0.00 in
15:03 38.1 °F 26.6 °F 29.63 in NW 4.7 mph 7.0 mph 63 % 0.00 in
15:08 38.1 °F 26.2 °F 29.63 in WNW 3.0 mph 9.2 mph 62 % 0.00 in
15:13 38.0 °F 26.1 °F 29.63 in WNW 1.3 mph 3.5 mph 62 % 0.00 in
15:19 38.0 °F 26.5 °F 29.64 in West 3.9 mph 6.0 mph 63 % 0.00 in
15:24 38.0 °F 26.5 °F 29.64 in West 2.0 mph 7.0 mph 63 % 0.00 in
15:29 38.0 °F 26.2 °F 29.64 in West 6.0 mph 15.0 mph 62 % 0.00 in
15:34 38.1 °F 25.8 °F 29.64 in West 7.0 mph 12.0 mph 61 % 0.00 in
15:39 38.1 °F 25.4 °F 29.64 in West 3.0 mph 13.0 mph 60 % 0.00 in
15:44 38.2 °F 25.5 °F 29.64 in West 3.0 mph 9.0 mph 60 % 0.00 in
15:49 38.2 °F 25.5 °F 29.64 in West 3.0 mph 10.0 mph 60 % 0.00 in
15:54 38.2 °F 25.5 °F 29.64 in West 2.0 mph 12.0 mph 60 % 0.00 in
15:59 38.2 °F 24.7 °F 29.64 in WNW 5.7 mph 12.7 mph 58 % 0.00 in
16:04 38.2 °F 24.3 °F 29.64 in WNW 5.2 mph 9.2 mph 57 % 0.00 in
16:09 38.2 °F 24.7 °F 29.64 in WSW 4.3 mph 12.7 mph 58 % 0.00 in
16:14 38.2 °F 24.3 °F 29.64 in WSW 5.9 mph 12.7 mph 57 % 0.00 in
16:19 38.1 °F 24.2 °F 29.64 in WSW 5.4 mph 9.2 mph 57 % 0.00 in
16:24 38.1 °F 24.6 °F 29.64 in WNW 6.9 mph 10.4 mph 58 % 0.00 in
16:34 38.0 °F 24.9 °F 29.64 in WNW 2.1 mph 3.5 mph 59 % 0.00 in
16:39 38.0 °F 24.5 °F 29.64 in West 4.4 mph 8.1 mph 58 % 0.00 in
16:44 38.0 °F 24.5 °F 29.64 in NW 7.8 mph 11.5 mph 58 % 0.00 in
16:49 37.9 °F 24.4 °F 29.64 in SW 2.8 mph 11.5 mph 58 % 0.00 in
16:54 37.9 °F 24.8 °F 29.65 in West 5.9 mph 11.5 mph 59 % 0.00 in
16:59 37.8 °F 24.7 °F 29.65 in West 6.3 mph 9.2 mph 59 % 0.00 in
17:00 37.8 °F 24.7 °F 29.65 in West 8.0 mph 12.7 mph 59 % 0.00 in
17:05 37.8 °F 24.3 °F 29.65 in West 10.4 mph 14.0 mph 58 % 0.00 in
17:10 37.7 °F 24.6 °F 29.65 in WSW 4.9 mph 8.1 mph 59 % 0.00 in
17:15 37.7 °F 24.6 °F 29.65 in SW 4.0 mph 5.8 mph 59 % 0.00 in
17:20 37.6 °F 25.0 °F 29.65 in WNW 6.8 mph 12.7 mph 60 % 0.00 in
17:25 37.6 °F 25.0 °F 29.65 in WSW 7.4 mph 12.7 mph 60 % 0.00 in
17:30 37.6 °F 25.0 °F 29.65 in WSW 4.3 mph 10.4 mph 60 % 0.00 in
17:40 37.5 °F 24.9 °F 29.66 in WSW 8.3 mph 13.0 mph 60 % 0.00 in
17:45 37.5 °F 24.9 °F 29.66 in West 6.3 mph 15.0 mph 60 % 0.00 in
17:50 37.4 °F 24.8 °F 29.66 in West 4.6 mph 10.4 mph 60 % 0.00 in
17:55 37.4 °F 24.4 °F 29.66 in WNW 9.0 mph 12.7 mph 59 % 0.00 in
18:00 37.4 °F 24.4 °F 29.67 in West 6.3 mph 8.1 mph 59 % 0.00 in
18:05 37.3 °F 24.7 °F 29.67 in WNW 3.8 mph 9.2 mph 60 % 0.00 in
18:10 37.3 °F 24.7 °F 29.67 in WSW 5.9 mph 10.4 mph 60 % 0.00 in
18:20 37.2 °F 23.8 °F 29.67 in WSW 5.6 mph 10.4 mph 58 % 0.00 in
18:26 37.2 °F 24.2 °F 29.67 in WNW 4.2 mph 10.4 mph 59 % 0.00 in
18:31 37.1 °F 24.1 °F 29.68 in WNW 3.6 mph 11.5 mph 59 % 0.00 in
18:36 37.1 °F 24.1 °F 29.68 in WSW 5.2 mph 11.5 mph 59 % 0.00 in
18:41 37.1 °F 24.5 °F 29.68 in SW 6.9 mph 11.5 mph 60 % 0.00 in
18:46 37.0 °F 24.4 °F 29.68 in West 6.7 mph 11.5 mph 60 % 0.00 in
18:51 37.0 °F 24.4 °F 29.69 in West 6.3 mph 11.5 mph 60 % 0.00 in
18:56 36.9 °F 24.3 °F 29.69 in WNW 6.0 mph 11.5 mph 60 % 0.00 in
19:01 36.8 °F 24.6 °F 29.69 in WSW 5.9 mph 10.4 mph 61 % 0.00 in
19:06 36.6 °F 24.4 °F 29.69 in WSW 4.6 mph 11.5 mph 61 % 0.00 in
19:11 36.5 °F 24.7 °F 29.69 in West 4.2 mph 8.1 mph 62 % 0.00 in
19:16 36.4 °F 24.6 °F 29.69 in West 6.9 mph 10.4 mph 62 % 0.00 in
19:21 36.4 °F 24.6 °F 29.69 in WSW 5.5 mph 7.0 mph 62 % 0.00 in
19:26 36.4 °F 24.6 °F 29.69 in NNW 4.9 mph 11.0 mph 62 % 0.00 in
19:31 36.4 °F 25.0 °F 29.69 in WSW 2.8 mph 6.9 mph 63 % 0.00 in
19:36 36.4 °F 25.0 °F 29.70 in WSW 5.5 mph 9.2 mph 63 % 0.00 in
19:41 36.5 °F 24.7 °F 29.70 in West 4.2 mph 6.9 mph 62 % 0.00 in
19:46 36.6 °F 24.8 °F 29.70 in West 2.9 mph 3.5 mph 62 % 0.00 in
19:51 36.6 °F 25.2 °F 29.71 in West 1.2 mph 5.8 mph 63 % 0.00 in
19:56 36.6 °F 25.6 °F 29.71 in WNW 3.5 mph 6.9 mph 64 % 0.00 in
20:01 36.6 °F 25.6 °F 29.71 in SW 3.8 mph 6.0 mph 64 % 0.00 in
20:07 36.5 °F 25.8 °F 29.71 in WSW 2.2 mph 6.9 mph 65 % 0.00 in
20:12 36.6 °F 25.9 °F 29.70 in SSW 6.0 mph 8.1 mph 65 % 0.00 in
20:17 36.6 °F 25.6 °F 29.70 in WSW 4.6 mph 9.0 mph 64 % 0.00 in
20:27 36.8 °F 25.8 °F 29.71 in West 1.4 mph 6.9 mph 64 % 0.00 in
20:37 36.8 °F 26.1 °F 29.71 in WSW 3.8 mph 9.2 mph 65 % 0.00 in
20:42 36.8 °F 25.8 °F 29.71 in WSW 5.8 mph 9.0 mph 64 % 0.00 in
20:47 36.8 °F 26.1 °F 29.71 in SW 3.0 mph 8.0 mph 65 % 0.00 in
20:52 36.9 °F 26.2 °F 29.71 in WNW 5.2 mph 9.0 mph 65 % 0.00 in
20:57 37.0 °F 26.3 °F 29.71 in SW 6.5 mph 9.0 mph 65 % 0.00 in
21:02 37.0 °F 26.3 °F 29.71 in SW 6.7 mph 14.0 mph 65 % 0.00 in
21:07 37.0 °F 26.3 °F 29.71 in WSW 3.6 mph 5.8 mph 65 % 0.00 in
21:12 37.0 °F 25.9 °F 29.71 in West 9.2 mph 13.8 mph 64 % 0.00 in
21:22 37.0 °F 25.2 °F 29.71 in SW 7.4 mph 11.5 mph 62 % 0.00 in
21:27 36.9 °F 25.1 °F 29.71 in West 4.6 mph 11.5 mph 62 % 0.00 in
21:32 36.9 °F 25.1 °F 29.71 in West 2.4 mph 11.5 mph 62 % 0.00 in
21:38 36.8 °F 25.4 °F 29.71 in West 2.8 mph 12.7 mph 63 % 0.00 in
21:43 36.8 °F 25.8 °F 29.71 in WSW 4.7 mph 8.1 mph 64 % 0.00 in
21:48 36.7 °F 25.7 °F 29.71 in West 3.8 mph 10.4 mph 64 % 0.00 in
21:53 36.6 °F 25.9 °F 29.71 in WSW 0.3 mph 4.6 mph 65 % 0.00 in
21:58 36.6 °F 25.9 °F 29.71 in West 2.5 mph 5.8 mph 65 % 0.00 in
22:03 36.5 °F 26.2 °F 29.71 in South 3.6 mph 6.9 mph 66 % 0.00 in
22:08 36.4 °F 26.1 °F 29.71 in SW 2.6 mph 4.6 mph 66 % 0.00 in
22:13 36.3 °F 26.0 °F 29.71 in WNW 4.7 mph 8.1 mph 66 % 0.00 in
22:18 36.2 °F 25.6 °F 29.71 in West 4.7 mph 5.8 mph 65 % 0.00 in
22:23 36.2 °F 25.6 °F 29.71 in West 3.5 mph 6.9 mph 65 % 0.00 in
22:28 36.2 °F 25.6 °F 29.70 in SW 3.3 mph 6.9 mph 65 % 0.00 in
22:38 36.1 °F 25.8 °F 29.70 in West 1.2 mph 2.3 mph 66 % 0.00 in
22:43 36.1 °F 26.2 °F 29.71 in SW 2.5 mph 4.6 mph 67 % 0.00 in
22:48 36.0 °F 26.1 °F 29.70 in WSW 2.9 mph 4.6 mph 67 % 0.00 in
22:53 35.9 °F 26.0 °F 29.70 in WSW 0.5 mph 2.3 mph 67 % 0.00 in
22:58 35.9 °F 26.0 °F 29.70 in WSW 2.0 mph 3.5 mph 67 % 0.00 in
23:03 35.8 °F 25.5 °F 29.70 in WSW 1.0 mph 2.3 mph 66 % 0.00 in
23:08 35.7 °F 25.8 °F 29.71 in WSW 1.1 mph 2.0 mph 67 % 0.00 in
23:13 35.5 °F 25.6 °F 29.71 in WSW 1.6 mph 3.5 mph 67 % 0.00 in
23:19 35.3 °F 25.4 °F 29.71 in Calm   3.0 mph 67 % 0.00 in
23:24 35.2 °F 25.3 °F 29.71 in WSW 1.0 mph 3.0 mph 67 % 0.00 in
23:29 35.0 °F 25.2 °F 29.71 in SW 3.0 mph 5.0 mph 67 % 0.00 in
23:34 34.9 °F 25.0 °F 29.71 in SW 3.2 mph 3.5 mph 67 % 0.00 in
23:39 34.8 °F 25.0 °F 29.71 in SW 1.0 mph 5.0 mph 67 % 0.00 in
23:44 34.8 °F 24.9 °F 29.71 in SW 1.0 mph 4.0 mph 67 % 0.00 in
23:49 34.7 °F 24.9 °F 29.71 in SW 1.3 mph 3.5 mph 67 % 0.00 in
23:54 34.7 °F 24.9 °F 29.71 in SW 1.0 mph 4.0 mph 67 % 0.00 in
23:59 34.6 °F 24.8 °F 29.70 in SW 0.6 mph 3.5 mph 67 % 0.00 in
Crab Meadow Weather
Compliments of Weather Underground - 3 mb

Script developed by  Jim McMurry - jmcmurry@mwt.net Adapted for the template by  Wim van der Kuil - Leuven-Template.eu

Weather Terms: Wind Chill Warning - Extreme wind chills of -30°F or colder.